2018-107A (43867 NORAD) Tracking and Keplerian Element Data

This shows tracking and keplerian element data for the satellite.

Feedback or suggestion? Click here.




ElementValue
Catalog43867
Name2018-107A
Epoch Orbit30
Epoch Day19.86547444
Epoch Year2019
RAAN275.6425
Inclination0.1263
Eccentricity0.0002232
Argument of Perigee341.2895
Mean Anonmoly253.5316
Mean Motion1.00271863
Decay Rate-1.34E-06
L11 43867U 18107A 19019.86547444 -.00000134 00000-0 00000+0 0 9995
L22 43867 0.1263 275.6425 0002232 341.2895 253.5316 1.00271863 300

Live tracking and technical data element details for 2018-107A (NORAD 43867). 2018-107A can be tracked NOW for your location showing map with azimuth and elevation plus other details from your city location.

Track the satellite on the map from your city or location and see movement details for azimuth, elevation, latitude, longitude, range, height, and movement on the map or in text.







IsCatalogInMostPopularTable: catalog: 43867, numindb: 17
Update: records affected: 1



GetName: 43867 2018-107A

Hit Count: updated at: Wed, 23 Jan 2019 03:56:17 GMT